When you browse on this site, cookies collect data to enhance your experience and personalize the content and advertising you see.
Visit our Privacy Policy to learn more. By continuing to use the site, you agree to this use of cookies and data.
  • In United Kingdom
  • List of Countries
  • For 7 days
  • Water Temperature
  • Weather Map
  • Weather Widgets
  • user-avatar
    Login

    Hourly Weather Rechytsa

    Today, 22 October, Tuesday

    Time Temperature Precipitation Wind Pressure Humidity
    00:00 +13°C° 0 mm 1 mps 755 mmHg 84%
    01:00 +13°C° 0 mm 1 mps 755 mmHg 85%
    02:00 +13°C° 0 mm 1 mps 755 mmHg 86%
    03:00 +12°C° 0 mm 1 mps 755 mmHg 87%
    04:00 +12°C° 0 mm 1 mps 755 mmHg 88%
    05:00 +11°C° 0 mm 0 mps 756 mmHg 88%
    06:00 +12°C° 0 mm 0 mps 756 mmHg 87%
    07:00 +12°C° 0 mm 0 mps 756 mmHg 85%
    08:00 +13°C° 0 mm 0 mps 756 mmHg 82%
    09:00 +14°C° 0 mm 0 mps 756 mmHg 76%
    10:00 +16°C° 0 mm 0 mps 757 mmHg 70%
    11:00 +17°C° 0 mm 0 mps 757 mmHg 65%
    12:00 +20°C° 0 mm 1 mps 757 mmHg 63%
    13:00 +20°C° 0 mm 1 mps 756 mmHg 60%
    14:00 +21°C° 0 mm 1 mps 756 mmHg 58%
    15:00 +20°C° 0 mm 1 mps 756 mmHg 64%
    16:00 +18°C° 0 mm 1 mps 756 mmHg 69%
    17:00 +16°C° 0 mm 1 mps 755 mmHg 75%
    18:00 +15°C° 0 mm 1 mps 755 mmHg 78%
    19:00 +15°C° 0 mm 1 mps 756 mmHg 80%
    20:00 +14°C° 0 mm 1 mps 756 mmHg 83%
    21:00 +14°C° 0 mm 1 mps 755 mmHg 84%
    22:00 +14°C° 0 mm 2 mps 755 mmHg 86%
    23:00 +13°C° 0 mm 2 mps 755 mmHg 87%

    Tomorrow, 23 October, Wednesday

    Time Temperature Precipitation Wind Pressure Humidity
    00:00 +13°C° 0 mm 2 mps 755 mmHg 88%
    01:00 +13°C° 0 mm 2 mps 755 mmHg 89%
    02:00 +13°C° 0 mm 2 mps 755 mmHg 90%
    03:00 +12°C° 0 mm 2 mps 755 mmHg 91%
    04:00 +12°C° 0 mm 2 mps 754 mmHg 92%
    05:00 +12°C° 0 mm 2 mps 754 mmHg 93%
    06:00 +12°C° 0 mm 2 mps 754 mmHg 92%
    07:00 +13°C° 0 mm 1 mps 754 mmHg 91%
    08:00 +13°C° 0 mm 1 mps 754 mmHg 90%
    09:00 +14°C° 0 mm 1 mps 754 mmHg 83%
    10:00 +16°C° 0 mm 2 mps 754 mmHg 76%
    11:00 +18°C° 0 mm 2 mps 754 mmHg 69%
    12:00 +18°C° 0 mm 2 mps 754 mmHg 66%
    13:00 +19°C° 0 mm 2 mps 754 mmHg 64%
    14:00 +19°C° 0 mm 2 mps 754 mmHg 61%
    15:00 +18°C° 0 mm 2 mps 753 mmHg 66%
    16:00 +18°C° 0 mm 1 mps 753 mmHg 72%
    17:00 +16°C° 0 mm 1 mps 753 mmHg 77%
    18:00 +15°C° 0 mm 1 mps 753 mmHg 80%
    19:00 +14°C° 0 mm 1 mps 753 mmHg 83%
    20:00 +14°C° 0 mm 1 mps 754 mmHg 86%
    21:00 +14°C° 0 mm 1 mps 754 mmHg 87%
    22:00 +13°C° 0 mm 1 mps 754 mmHg 89%
    23:00 +13°C° 0 mm 1 mps 754 mmHg 91%

    Day after tomorrow, 24 October, Thursday

    Time Temperature Precipitation Wind Pressure Humidity
    00:00 +13°C° 0 mm 1 mps 754 mmHg 91%
    01:00 +12°C° 0 mm 1 mps 754 mmHg 92%
    02:00 +12°C° 0 mm 1 mps 754 mmHg 93%
    03:00 +11°C° 0 mm 1 mps 754 mmHg 93%
    04:00 +11°C° 0 mm 1 mps 754 mmHg 94%
    05:00 +11°C° 0 mm 1 mps 754 mmHg 94%
    06:00 +11°C° 0 mm 1 mps 754 mmHg 93%
    07:00 +11°C° 0 mm 1 mps 754 mmHg 91%
    08:00 +11°C° 0 mm 1 mps 754 mmHg 90%
    09:00 +13°C° 0 mm 1 mps 754 mmHg 83%
    10:00 +15°C° 0 mm 1 mps 754 mmHg 76%
    11:00 +16°C° 0 mm 1 mps 754 mmHg 69%
    12:00 +18°C° 0 mm 1 mps 754 mmHg 67%
    13:00 +18°C° 0 mm 1 mps 754 mmHg 64%
    14:00 +19°C° 0 mm 1 mps 754 mmHg 62%
    15:00 +18°C° 0 mm 1 mps 754 mmHg 67%
    16:00 +15°C° 0 mm 1 mps 753 mmHg 72%
    17:00 +14°C° 0 mm 1 mps 753 mmHg 77%
    18:00 +14°C° 0 mm 2 mps 753 mmHg 78%
    19:00 +13°C° 0 mm 2 mps 753 mmHg 79%
    20:00 +12°C° 0 mm 2 mps 753 mmHg 80%
    21:00 +12°C° 0 mm 2 mps 754 mmHg 82%
    22:00 +12°C° 0 mm 2 mps 754 mmHg 83%
    23:00 +10°C° 0 mm 2 mps 754 mmHg 85%

    25 October, Friday

    Time Temperature Precipitation Wind Pressure Humidity
    00:00 +10°C° 0 mm 2 mps 754 mmHg 87%
    01:00 +10°C° 0 mm 2 mps 753 mmHg 89%
    02:00 +10°C° 0 mm 2 mps 753 mmHg 90%
    03:00 +9°C° 0 mm 2 mps 753 mmHg 91%
    04:00 +9°C° 0 mm 2 mps 753 mmHg 92%
    05:00 +9°C° 0 mm 2 mps 753 mmHg 93%
    06:00 +9°C° 0 mm 2 mps 753 mmHg 92%
    07:00 +10°C° 0 mm 2 mps 753 mmHg 92%
    08:00 +10°C° 0 mm 3 mps 753 mmHg 91%
    09:00 +12°C° 0 mm 3 mps 753 mmHg 84%
    10:00 +14°C° 0 mm 3 mps 753 mmHg 78%
    11:00 +16°C° 0 mm 3 mps 753 mmHg 71%
    12:00 +17°C° 0 mm 3 mps 753 mmHg 69%
    13:00 +18°C° 0 mm 4 mps 752 mmHg 66%
    14:00 +19°C° 0 mm 4 mps 752 mmHg 63%
    15:00 +18°C° 0 mm 3 mps 752 mmHg 70%
    16:00 +16°C° 0 mm 3 mps 751 mmHg 76%
    17:00 +15°C° 0 mm 2 mps 751 mmHg 82%
    18:00 +14°C° 0 mm 2 mps 751 mmHg 83%
    19:00 +14°C° 0 mm 2 mps 751 mmHg 84%
    20:00 +13°C° 0 mm 2 mps 752 mmHg 85%
    21:00 +13°C° 0 mm 2 mps 752 mmHg 86%
    22:00 +12°C° 0 mm 2 mps 752 mmHg 87%
    23:00 +12°C° 0 mm 2 mps 752 mmHg 88%

    26 October, Saturday

    Time Temperature Precipitation Wind Pressure Humidity
    00:00 +12°C° 0 mm 2 mps 752 mmHg 90%
    01:00 +10°C° 0 mm 2 mps 752 mmHg 92%
    02:00 +10°C° 0 mm 2 mps 752 mmHg 93%
    03:00 +10°C° 0 mm 2 mps 752 mmHg 94%
    04:00 +10°C° 0 mm 2 mps 752 mmHg 94%
    05:00 +9°C° 0 mm 2 mps 753 mmHg 95%
    06:00 +10°C° 0 mm 2 mps 753 mmHg 93%
    07:00 +10°C° 0 mm 2 mps 753 mmHg 92%
    08:00 +10°C° 0 mm 2 mps 753 mmHg 91%
    09:00 +13°C° 0 mm 1 mps 753 mmHg 82%
    10:00 +14°C° 0 mm 1 mps 753 mmHg 74%
    11:00 +15°C° 0 mm 0 mps 753 mmHg 65%
    12:00 +16°C° 0 mm 1 mps 753 mmHg 63%
    13:00 +18°C° 0 mm 1 mps 752 mmHg 60%
    14:00 +18°C° 0 mm 2 mps 751 mmHg 58%
    15:00 +16°C° 0 mm 1 mps 751 mmHg 64%
    16:00 +15°C° 0 mm 1 mps 751 mmHg 69%
    17:00 +14°C° 0 mm 1 mps 751 mmHg 75%
    18:00 +13°C° 0 mm 2 mps 750 mmHg 78%
    19:00 +13°C° 0 mm 2 mps 750 mmHg 81%
    20:00 +11°C° 0 mm 3 mps 750 mmHg 84%
    21:00 +11°C° 0 mm 3 mps 750 mmHg 86%
    22:00 +11°C° 0 mm 3 mps 749 mmHg 89%
    23:00 +11°C° 0 mm 3 mps 749 mmHg 91%

    27 October, Sunday

    Time Temperature Precipitation Wind Pressure Humidity
    00:00 +11°C° 0 mm 3 mps 749 mmHg 92%
    01:00 +11°C° 0 mm 3 mps 748 mmHg 92%
    02:00 +11°C° 0 mm 3 mps 748 mmHg 92%
    03:00 +10°C° 0 mm 3 mps 748 mmHg 93%
    04:00 +10°C° 0 mm 3 mps 748 mmHg 93%
    05:00 +10°C° 0 mm 3 mps 747 mmHg 93%
    06:00 +10°C° 0 mm 3 mps 747 mmHg 91%
    07:00 +10°C° 0 mm 3 mps 747 mmHg 90%
    08:00 +11°C° 0 mm 4 mps 747 mmHg 88%
    09:00 +12°C° 0 mm 4 mps 747 mmHg 83%
    10:00 +13°C° 0 mm 4 mps 747 mmHg 77%
    11:00 +14°C° 0 mm 5 mps 747 mmHg 71%
    12:00 +14°C° 0 mm 5 mps 747 mmHg 71%
    13:00 +14°C° 0 mm 5 mps 747 mmHg 71%
    14:00 +14°C° 0 mm 6 mps 747 mmHg 71%
    15:00 +11°C° 0.1 mm 6 mps 747 mmHg 70%
    16:00 +10°C° 0.1 mm 6 mps 747 mmHg 69%
    17:00 +9°C° 0.1 mm 6 mps 748 mmHg 68%
    18:00 +8°C° 0 mm 5 mps 748 mmHg 67%
    19:00 +7°C° 0 mm 5 mps 748 mmHg 67%
    20:00 +6°C° 0 mm 4 mps 749 mmHg 66%
    21:00 +5°C° 0 mm 4 mps 749 mmHg 65%
    22:00 +5°C° 0 mm 4 mps 748 mmHg 63%
    23:00 +5°C° 0 mm 5 mps 748 mmHg 61%

    28 October, Monday

    Time Temperature Precipitation Wind Pressure Humidity
    00:00 +5°C° 0 mm 5 mps 748 mmHg 64%
    01:00 +3°C° 0 mm 5 mps 748 mmHg 67%
    02:00 +3°C° 0 mm 5 mps 748 mmHg 70%
    03:00 +3°C° 0 mm 5 mps 748 mmHg 73%
    04:00 +3°C° 0 mm 5 mps 747 mmHg 76%
    05:00 +3°C° 0 mm 5 mps 747 mmHg 79%
    06:00 +3°C° 0 mm 5 mps 747 mmHg 79%
    07:00 +3°C° 0 mm 5 mps 747 mmHg 78%
    08:00 +4°C° 0 mm 6 mps 747 mmHg 77%
    09:00 +5°C° 0 mm 6 mps 747 mmHg 72%
    10:00 +7°C° 0 mm 6 mps 747 mmHg 67%
    11:00 +8°C° 0 mm 7 mps 747 mmHg 62%
    12:00 +8°C° 0.1 mm 7 mps 747 mmHg 60%
    13:00 +8°C° 0.1 mm 7 mps 747 mmHg 57%
    14:00 +8°C° 0.1 mm 7 mps 746 mmHg 55%
    15:00 +7°C° 0.1 mm 6 mps 746 mmHg 59%
    16:00 +7°C° 0.1 mm 5 mps 746 mmHg 63%
    17:00 +6°C° 0.1 mm 4 mps 746 mmHg 68%
    18:00 +5°C° 0.1 mm 4 mps 746 mmHg 71%
    19:00 +5°C° 0.1 mm 4 mps 746 mmHg 74%
    20:00 +4°C° 0.1 mm 4 mps 746 mmHg 77%
    21:00 +4°C° 0 mm 4 mps 746 mmHg 79%
    22:00 +3°C° 0 mm 4 mps 746 mmHg 81%
    23:00 +3°C° 0 mm 4 mps 746 mmHg 83%
    Show more